Location: Paderno d�Adda
(45.6667°N, 9.4333°E)
Time: 20:13:43
(UTC+00:00)

Cosmos 1707 - Pass Details

Date: 19 September 2020
Orbit: 515 x 530 km, 82.5° (Epoch: 27 October)

Event Time Altitude Azimuth Distance (km) Brightness Sun altitude
Rises 19:03:51 0° 345° (NNW) 2,651 6.8 -17.7°
Reaches altitude 10° 19:06:03 10° 339° (NNW) 1,756 6.0 -18.1°
Maximum altitude 19:09:44 45° 266° (W) 713 3.8 -18.7°
Drops below altitude 10° 19:13:22 10° 193° (SSW) 1,738 5.3 -19.2°
Enters shadow 19:14:15 - 190° (S) 2,091 5.6 -19.4°
